Home > Products > Valid Products > RWR

000
ASUS43 KLMK 272302
RWRKY
KENTUCKY REGIONAL WEATHER ROUNDUP
NATIONAL WEATHER SERVICE LOUISVILLE KY
700 PM EDT FRI MAY 27 2016

NOTE "FAIR" INDICATES FEW OR NO CLOUDS BELOW 12,000 FEET
WITH NO SIGNIFICANT WEATHER AND/OR OBSTRUCTIONS TO VISIBILITY.

KYZ001>023-026-027-061>063-070>075-280000-
WESTERN AND SOUTH CENTRAL KENTUCKY

CITY           SKY/WX    TMP DP  RH WIND       PRES   REMARKS
PADUCAH        CLOUDY    79  66  64 S8        29.88S
HENDERSON      MOSUNNY   82  63  51 S12G20    29.89R
OWENSBORO      SUNNY     84  63  49 SW17G29   29.91F
HOPKINSVILLE   NOT AVBL
BOWLING GREEN  MOSUNNY   84  64  50 S6        29.93F
GLASGOW        NOT AVBL
$$

KYZ024-025-028>034-038-045-046-053-280000-
NORTH CENTRAL KENTUCKY

CITY           SKY/WX    TMP DP  RH WIND       PRES   REMARKS
LOUISVILLE/SDF PTSUNNY   86  63  45 S13G20    29.93F
LOUISVILLE/LOU PTSUNNY   85  65  51 SE10      29.94F
FORT KNOX      NOT AVBL
$$

KYZ035>037-039>044-047>052-055>060-089>105-280000-
NORTHEAST KENTUCKY

CITY           SKY/WX    TMP DP  RH WIND       PRES   REMARKS
LEXINGTON      MOSUNNY   83  65  54 S6        29.99F
COVINGTON      PTSUNNY   83  64  52 SW7       29.97F
FRANKFORT      MOSUNNY   84  64  50 S8        29.96F
$$

KYZ054-064>069-076>088-106>120-280000-
SOUTHEAST KENTUCKY

CITY           SKY/WX    TMP DP  RH WIND       PRES   REMARKS
JACKSON        LGT RAIN  69  62  78 E3        30.03F
LONDON         PTSUNNY   79  63  57 S10       30.01F
SOMERSET       NOT AVBL
MIDDLESBORO    NOT AVBL
MONTICELLO     PTCLDY    76  71  85 VRB6      30.01S
$$







000
ASUS43 KLMK 272010
RWRKY
KENTUCKY REGIONAL WEATHER ROUNDUP
NATIONAL WEATHER SERVICE LOUISVILLE KY
400 PM EDT FRI MAY 27 2016

NOTE "FAIR" INDICATES FEW OR NO CLOUDS BELOW 12,000 FEET
WITH NO SIGNIFICANT WEATHER AND/OR OBSTRUCTIONS TO VISIBILITY.

KYZ001>023-026-027-061>063-070>075-272100-
WESTERN AND SOUTH CENTRAL KENTUCKY

CITY           SKY/WX    TMP DP  RH WIND       PRES   REMARKS
PADUCAH        PTSUNNY   82  67  60 S15G26    29.89F
HENDERSON      PTSUNNY   82  66  57 S17       29.91F
OWENSBORO      PTSUNNY   84  67  56 S15       29.95F
HOPKINSVILLE   MOSUNNY   84  61  46 S15G31    29.96F
BOWLING GREEN  PTSUNNY   85  66  53 S10       29.98F
GLASGOW        CLOUDY    85  64  49 S8        30.00S
$$

KYZ024-025-028>034-038-045-046-053-272100-
NORTH CENTRAL KENTUCKY

CITY           SKY/WX    TMP DP  RH WIND       PRES   REMARKS
LOUISVILLE/SDF PTSUNNY   86  62  44 S17       29.97F
LOUISVILLE/LOU MOSUNNY   85  64  49 S12G17    29.98F
FORT KNOX      MOSUNNY   82  65  54 S17G24    29.98S
$$

KYZ035>037-039>044-047>052-055>060-089>105-272100-
NORTHEAST KENTUCKY

CITY           SKY/WX    TMP DP  RH WIND       PRES   REMARKS
LEXINGTON      CLOUDY    84  65  52 S9        30.03F
COVINGTON      MOSUNNY   84  64  50 S13G18    30.01F
FRANKFORT      MOSUNNY   86  65  49 SW7       30.00F
$$

KYZ054-064>069-076>088-106>120-272100-
SOUTHEAST KENTUCKY

CITY           SKY/WX    TMP DP  RH WIND       PRES   REMARKS
JACKSON        MOSUNNY   84  64  50 CALM      30.06F
LONDON         MOSUNNY   84  63  49 S8        30.05F
SOMERSET       CLOUDY    81  64  57 S3        30.04F
MIDDLESBORO    SUNNY     86  63  46 SW3       30.06F
MONTICELLO     CLOUDY    84  69  60 VRB7      30.04F
$$







000
ASUS43 KLMK 272002
RWRKY
KENTUCKY REGIONAL WEATHER ROUNDUP
NATIONAL WEATHER SERVICE LOUISVILLE KY
400 PM EDT FRI MAY 27 2016

NOTE "FAIR" INDICATES FEW OR NO CLOUDS BELOW 12,000 FEET
WITH NO SIGNIFICANT WEATHER AND/OR OBSTRUCTIONS TO VISIBILITY.

KYZ001>023-026-027-061>063-070>075-272100-
WESTERN AND SOUTH CENTRAL KENTUCKY

CITY           SKY/WX    TMP DP  RH WIND       PRES   REMARKS
PADUCAH        PTSUNNY   82  67  60 S15G26    29.89F
HENDERSON      PTSUNNY   82  66  57 S17       29.91F
OWENSBORO      PTSUNNY   84  67  56 S15       29.95F
HOPKINSVILLE   NOT AVBL
BOWLING GREEN  PTSUNNY   85  66  53 S10       29.98F
GLASGOW        NOT AVBL
$$

KYZ024-025-028>034-038-045-046-053-272100-
NORTH CENTRAL KENTUCKY

CITY           SKY/WX    TMP DP  RH WIND       PRES   REMARKS
LOUISVILLE/SDF PTSUNNY   86  62  44 S17       29.97F
LOUISVILLE/LOU MOSUNNY   85  64  49 S12G17    29.98F
FORT KNOX      MOSUNNY   82  65  54 S17G24    29.98S
$$

KYZ035>037-039>044-047>052-055>060-089>105-272100-
NORTHEAST KENTUCKY

CITY           SKY/WX    TMP DP  RH WIND       PRES   REMARKS
LEXINGTON      CLOUDY    84  65  52 S9        30.03F
COVINGTON      MOSUNNY   84  64  50 S13G18    30.01F
FRANKFORT      MOSUNNY   86  65  49 SW7       30.00F
$$

KYZ054-064>069-076>088-106>120-272100-
SOUTHEAST KENTUCKY

CITY           SKY/WX    TMP DP  RH WIND       PRES   REMARKS
JACKSON        MOSUNNY   84  64  50 CALM      30.06F
LONDON         MOSUNNY   84  63  49 S8        30.05F
SOMERSET       NOT AVBL
MIDDLESBORO    NOT AVBL
MONTICELLO     CLOUDY    84  69  60 VRB7      30.04F
$$







000
ASUS43 KLMK 271910
RWRKY
KENTUCKY REGIONAL WEATHER ROUNDUP
NATIONAL WEATHER SERVICE LOUISVILLE KY
300 PM EDT FRI MAY 27 2016

NOTE "FAIR" INDICATES FEW OR NO CLOUDS BELOW 12,000 FEET
WITH NO SIGNIFICANT WEATHER AND/OR OBSTRUCTIONS TO VISIBILITY.

KYZ001>023-026-027-061>063-070>075-272000-
WESTERN AND SOUTH CENTRAL KENTUCKY

CITY           SKY/WX    TMP DP  RH WIND       PRES   REMARKS
PADUCAH        CLOUDY    83  69  62 SW10G20   29.90F
HENDERSON      MOSUNNY   82  66  57 S16G22    29.93S
OWENSBORO      PTSUNNY   86  69  56 S14G21    29.96F HX  90
HOPKINSVILLE   MOSUNNY   84  66  54 S17G24    29.97F
BOWLING GREEN  PTSUNNY   84  66  54 S13       29.99F
GLASGOW        CLOUDY    84  65  53 S9        30.01F
$$

KYZ024-025-028>034-038-045-046-053-272000-
NORTH CENTRAL KENTUCKY

CITY           SKY/WX    TMP DP  RH WIND       PRES   REMARKS
LOUISVILLE/SDF CLOUDY    87  63  44 S15G22    29.98F
LOUISVILLE/LOU CLOUDY    84  64  50 S13       29.99F
FORT KNOX      PTSUNNY   84  65  53 S17       29.98F
$$

KYZ035>037-039>044-047>052-055>060-089>105-272000-
NORTHEAST KENTUCKY

CITY           SKY/WX    TMP DP  RH WIND       PRES   REMARKS
LEXINGTON      MOSUNNY   84  64  50 S14       30.04F
COVINGTON      MOSUNNY   84  65  52 SW10G17   30.02F
FRANKFORT      MOSUNNY   85  65  51 SW10      30.01F
$$

KYZ054-064>069-076>088-106>120-272000-
SOUTHEAST KENTUCKY

CITY           SKY/WX    TMP DP  RH WIND       PRES   REMARKS
JACKSON        MOSUNNY   85  65  51 CALM      30.08F
LONDON         CLOUDY    83  62  49 VRB5      30.07F
SOMERSET       PTSUNNY   82  64  54 SE5       30.06F
MIDDLESBORO    SUNNY     85  64  49 SW5       30.08F
MONTICELLO     PTCLDY    86  68  54 SW8G16    30.06F
$$







000
ASUS43 KLMK 271802
RWRKY
KENTUCKY REGIONAL WEATHER ROUNDUP
NATIONAL WEATHER SERVICE LOUISVILLE KY
200 PM EDT FRI MAY 27 2016

NOTE "FAIR" INDICATES FEW OR NO CLOUDS BELOW 12,000 FEET
WITH NO SIGNIFICANT WEATHER AND/OR OBSTRUCTIONS TO VISIBILITY.

KYZ001>023-026-027-061>063-070>075-271900-
WESTERN AND SOUTH CENTRAL KENTUCKY

CITY           SKY/WX    TMP DP  RH WIND       PRES   REMARKS
PADUCAH        PTSUNNY   81  68  64 S14G21    29.92F
HENDERSON      PTSUNNY   82  68  61 S17G23    29.94F
OWENSBORO      MOSUNNY   85  67  54 S14G23    29.97F
HOPKINSVILLE   NOT AVBL
BOWLING GREEN  MOSUNNY   83  65  54 S14       30.01F
GLASGOW        NOT AVBL
$$

KYZ024-025-028>034-038-045-046-053-271900-
NORTH CENTRAL KENTUCKY

CITY           SKY/WX    TMP DP  RH WIND       PRES   REMARKS
LOUISVILLE/SDF PTSUNNY   85  63  47 S13       30.00F
LOUISVILLE/LOU MOSUNNY   84  64  50 S9G18     30.01F
FORT KNOX      CLOUDY    83  65  54 S15       30.00F
$$

KYZ035>037-039>044-047>052-055>060-089>105-271900-
NORTHEAST KENTUCKY

CITY           SKY/WX    TMP DP  RH WIND       PRES   REMARKS
LEXINGTON      MOSUNNY   84  63  49 S9        30.06F
COVINGTON      MOSUNNY   84  65  52 SW12      30.03F
FRANKFORT      SUNNY     85  63  47 S9G20     30.03F
$$

KYZ054-064>069-076>088-106>120-271900-
SOUTHEAST KENTUCKY

CITY           SKY/WX    TMP DP  RH WIND       PRES   REMARKS
JACKSON        PTSUNNY   84  65  52 CALM      30.10F
LONDON         SUNNY     83  59  44 SW9       30.09F
SOMERSET       NOT AVBL
MIDDLESBORO    NOT AVBL
MONTICELLO     MOCLDY    84  67  56 W13       30.08F
$$







000
ASUS43 KLMK 271702
RWRKY
KENTUCKY REGIONAL WEATHER ROUNDUP
NATIONAL WEATHER SERVICE LOUISVILLE KY
100 PM EDT FRI MAY 27 2016

NOTE "FAIR" INDICATES FEW OR NO CLOUDS BELOW 12,000 FEET
WITH NO SIGNIFICANT WEATHER AND/OR OBSTRUCTIONS TO VISIBILITY.

KYZ001>023-026-027-061>063-070>075-271800-
WESTERN AND SOUTH CENTRAL KENTUCKY

CITY           SKY/WX    TMP DP  RH WIND       PRES   REMARKS
PADUCAH        CLOUDY    81  69  67 S13G18    29.94F
HENDERSON      CLOUDY    81  66  61 S16       29.96F
OWENSBORO      MOSUNNY   83  66  56 S16G24    29.99F
HOPKINSVILLE   NOT AVBL
BOWLING GREEN  CLOUDY    83  65  54 SW12      30.04F
GLASGOW        NOT AVBL
$$

KYZ024-025-028>034-038-045-046-053-271800-
NORTH CENTRAL KENTUCKY

CITY           SKY/WX    TMP DP  RH WIND       PRES   REMARKS
LOUISVILLE/SDF PTSUNNY   84  64  50 S15       30.02F
LOUISVILLE/LOU MOSUNNY   82  66  58 S10       30.03F
FORT KNOX      PTSUNNY   84  66  54 S16       30.02F
$$

KYZ035>037-039>044-047>052-055>060-089>105-271800-
NORTHEAST KENTUCKY

CITY           SKY/WX    TMP DP  RH WIND       PRES   REMARKS
LEXINGTON      SUNNY     83  65  54 SW14      30.07F
COVINGTON      MOSUNNY   82  67  60 VRB7      30.04F
FRANKFORT      SUNNY     83  65  54 S14       30.05S
$$

KYZ054-064>069-076>088-106>120-271800-
SOUTHEAST KENTUCKY

CITY           SKY/WX    TMP DP  RH WIND       PRES   REMARKS
JACKSON        MOSUNNY   82  65  56 VRB3      30.11S
LONDON         MOSUNNY   82  63  52 SW8       30.11S
SOMERSET       NOT AVBL
MIDDLESBORO    MOSUNNY   82  66  57 S6        30.12S
MONTICELLO     SUNNY     84  67  56 W14G20    30.10F
$$







000
ASUS43 KLMK 271310
RWRKY
KENTUCKY REGIONAL WEATHER ROUNDUP
NATIONAL WEATHER SERVICE LOUISVILLE KY
900 AM EDT FRI MAY 27 2016

NOTE "FAIR" INDICATES FEW OR NO CLOUDS BELOW 12,000 FEET
WITH NO SIGNIFICANT WEATHER AND/OR OBSTRUCTIONS TO VISIBILITY.

KYZ001>023-026-027-061>063-070>075-271400-
WESTERN AND SOUTH CENTRAL KENTUCKY

CITY           SKY/WX    TMP DP  RH WIND       PRES   REMARKS
PADUCAH        CLOUDY    70  66  87 CALM      29.95R
HENDERSON      CLOUDY    72  64  78 S9G16     29.96S
OWENSBORO      CLOUDY    73  67  81 S10       30.00R
HOPKINSVILLE   CLOUDY    71  65  82 SE9       30.01R
BOWLING GREEN  MOSUNNY   72  66  81 S5        30.04S
GLASGOW        CLOUDY    72  64  75 S6        30.05S
$$

KYZ024-025-028>034-038-045-046-053-271400-
NORTH CENTRAL KENTUCKY

CITY           SKY/WX    TMP DP  RH WIND       PRES   REMARKS
LOUISVILLE/SDF PTSUNNY   71  64  78 SE8       30.03R
LOUISVILLE/LOU MOSUNNY   70  64  81 S8        30.04R
FORT KNOX      PTSUNNY   70  66  87 SE7       30.02S
$$

KYZ035>037-039>044-047>052-055>060-089>105-271400-
NORTHEAST KENTUCKY

CITY           SKY/WX    TMP DP  RH WIND       PRES   REMARKS
LEXINGTON      SUNNY     71  64  78 S7        30.07S
COVINGTON      MOSUNNY   70  64  81 SW10      30.05R
FRANKFORT      MOSUNNY   69  63  81 SE5       30.05R
$$

KYZ054-064>069-076>088-106>120-271400-
SOUTHEAST KENTUCKY

CITY           SKY/WX    TMP DP  RH WIND       PRES   REMARKS
JACKSON        SUNNY     71  62  73 VRB3      30.11S
LONDON         SUNNY     72  62  71 S6        30.11R
SOMERSET       SUNNY     68  64  88 S5        30.11R
MIDDLESBORO    SUNNY     67  64  89 CALM      30.14S
MONTICELLO     SUNNY     73  66  78 NE7       30.11R
$$







000
ASUS43 KLMK 271302
RWRKY
KENTUCKY REGIONAL WEATHER ROUNDUP
NATIONAL WEATHER SERVICE LOUISVILLE KY
900 AM EDT FRI MAY 27 2016

NOTE "FAIR" INDICATES FEW OR NO CLOUDS BELOW 12,000 FEET
WITH NO SIGNIFICANT WEATHER AND/OR OBSTRUCTIONS TO VISIBILITY.

KYZ001>023-026-027-061>063-070>075-271400-
WESTERN AND SOUTH CENTRAL KENTUCKY

CITY           SKY/WX    TMP DP  RH WIND       PRES   REMARKS
PADUCAH        CLOUDY    70  66  87 CALM      29.95R
HENDERSON      CLOUDY    72  64  78 S9G16     29.96S
OWENSBORO      CLOUDY    73  67  81 S10       30.00R
HOPKINSVILLE   NOT AVBL
BOWLING GREEN  MOSUNNY   72  66  81 S5        30.04S
GLASGOW        NOT AVBL
$$

KYZ024-025-028>034-038-045-046-053-271400-
NORTH CENTRAL KENTUCKY

CITY           SKY/WX    TMP DP  RH WIND       PRES   REMARKS
LOUISVILLE/SDF PTSUNNY   71  64  78 SE8       30.03R
LOUISVILLE/LOU MOSUNNY   70  64  81 S8        30.04R
FORT KNOX      NOT AVBL
$$

KYZ035>037-039>044-047>052-055>060-089>105-271400-
NORTHEAST KENTUCKY

CITY           SKY/WX    TMP DP  RH WIND       PRES   REMARKS
LEXINGTON      SUNNY     71  64  78 S7        30.07S
COVINGTON      MOSUNNY   70  64  81 SW10      30.05R
FRANKFORT      MOSUNNY   69  63  81 SE5       30.05R
$$

KYZ054-064>069-076>088-106>120-271400-
SOUTHEAST KENTUCKY

CITY           SKY/WX    TMP DP  RH WIND       PRES   REMARKS
JACKSON        SUNNY     71  62  73 VRB3      30.11S
LONDON         SUNNY     72  62  71 S6        30.11R
SOMERSET       NOT AVBL
MIDDLESBORO    SUNNY     67  64  89 CALM      30.14S
MONTICELLO     SUNNY     73  66  78 NE7       30.11R
$$







000
ASUS43 KLMK 271210
RWRKY
KENTUCKY REGIONAL WEATHER ROUNDUP
NATIONAL WEATHER SERVICE LOUISVILLE KY
800 AM EDT FRI MAY 27 2016

NOTE "FAIR" INDICATES FEW OR NO CLOUDS BELOW 12,000 FEET
WITH NO SIGNIFICANT WEATHER AND/OR OBSTRUCTIONS TO VISIBILITY.

KYZ001>023-026-027-061>063-070>075-271300-
WESTERN AND SOUTH CENTRAL KENTUCKY

CITY           SKY/WX    TMP DP  RH WIND       PRES   REMARKS
PADUCAH        CLOUDY    69  64  84 S5        29.94R
HENDERSON      CLOUDY    66  63  88 SE6       29.96S
OWENSBORO      CLOUDY    69  67  93 SE13      29.99S
HOPKINSVILLE   CLOUDY    68  65  91 SE10      30.00R
BOWLING GREEN  CLOUDY    66  65  96 CALM      30.04R
GLASGOW        CLOUDY    65  65 100 CALM      30.05S
$$

KYZ024-025-028>034-038-045-046-053-271300-
NORTH CENTRAL KENTUCKY

CITY           SKY/WX    TMP DP  RH WIND       PRES   REMARKS
LOUISVILLE/SDF PTSUNNY   68  63  84 SE7       30.02S
LOUISVILLE/LOU CLOUDY    68  63  84 SE3       30.03S
FORT KNOX      PTSUNNY   66  66 100 E3        30.02S
$$

KYZ035>037-039>044-047>052-055>060-089>105-271300-
NORTHEAST KENTUCKY

CITY           SKY/WX    TMP DP  RH WIND       PRES   REMARKS
LEXINGTON      MOSUNNY   67  64  90 S6        30.07R
COVINGTON      MOSUNNY   66  63  90 S6        30.04S
FRANKFORT      MOSUNNY   66  62  87 SE6       30.04S
$$

KYZ054-064>069-076>088-106>120-271300-
SOUTHEAST KENTUCKY

CITY           SKY/WX    TMP DP  RH WIND       PRES   REMARKS
JACKSON        PTSUNNY   68  61  78 CALM      30.11R
LONDON         SUNNY     66  61  84 CALM      30.10S
SOMERSET       SUNNY     64  64 100 S5        30.10S
MIDDLESBORO    SUNNY     62  61  96 CALM      30.14S
MONTICELLO     SUNNY     69  64  84 NE7       30.10S
$$







000
ASUS43 KLMK 271202
RWRKY
KENTUCKY REGIONAL WEATHER ROUNDUP
NATIONAL WEATHER SERVICE LOUISVILLE KY
800 AM EDT FRI MAY 27 2016

NOTE "FAIR" INDICATES FEW OR NO CLOUDS BELOW 12,000 FEET
WITH NO SIGNIFICANT WEATHER AND/OR OBSTRUCTIONS TO VISIBILITY.

KYZ001>023-026-027-061>063-070>075-271300-
WESTERN AND SOUTH CENTRAL KENTUCKY

CITY           SKY/WX    TMP DP  RH WIND       PRES   REMARKS
PADUCAH        CLOUDY    69  64  84 S5        29.94R
HENDERSON      CLOUDY    66  63  88 SE6       29.96S
OWENSBORO      CLOUDY    69  67  93 SE13      29.99S
HOPKINSVILLE   NOT AVBL
BOWLING GREEN  CLOUDY    66  65  96 CALM      30.04R
GLASGOW        NOT AVBL
$$

KYZ024-025-028>034-038-045-046-053-271300-
NORTH CENTRAL KENTUCKY

CITY           SKY/WX    TMP DP  RH WIND       PRES   REMARKS
LOUISVILLE/SDF PTSUNNY   68  63  84 SE7       30.02S
LOUISVILLE/LOU CLOUDY    68  63  84 SE3       30.03S
FORT KNOX      PTSUNNY   66  66 100 E3        30.02S
$$

KYZ035>037-039>044-047>052-055>060-089>105-271300-
NORTHEAST KENTUCKY

CITY           SKY/WX    TMP DP  RH WIND       PRES   REMARKS
LEXINGTON      MOSUNNY   67  64  90 S6        30.07R
COVINGTON      MOSUNNY   66  63  90 S6        30.04S
FRANKFORT      MOSUNNY   66  62  87 SE6       30.04S
$$

KYZ054-064>069-076>088-106>120-271300-
SOUTHEAST KENTUCKY

CITY           SKY/WX    TMP DP  RH WIND       PRES   REMARKS
JACKSON        PTSUNNY   68  61  78 CALM      30.11R
LONDON         SUNNY     66  61  84 CALM      30.10S
SOMERSET       NOT AVBL
MIDDLESBORO    NOT AVBL
MONTICELLO     SUNNY     69  64  84 NE7       30.10S
$$







000
ASUS43 KLMK 271110
RWRKY
KENTUCKY REGIONAL WEATHER ROUNDUP
NATIONAL WEATHER SERVICE LOUISVILLE KY
700 AM EDT FRI MAY 27 2016

NOTE "FAIR" INDICATES FEW OR NO CLOUDS BELOW 12,000 FEET
WITH NO SIGNIFICANT WEATHER AND/OR OBSTRUCTIONS TO VISIBILITY.

KYZ001>023-026-027-061>063-070>075-271200-
WESTERN AND SOUTH CENTRAL KENTUCKY

CITY           SKY/WX    TMP DP  RH WIND       PRES   REMARKS
PADUCAH        CLOUDY    68  64  87 SE8       29.92S
HENDERSON      CLOUDY    66  61  82 CALM      29.96F
OWENSBORO      PTCLDY    67  66  96 S7        29.99S
HOPKINSVILLE   MOCLDY    67  65  95 SE8       29.99R
BOWLING GREEN  CLOUDY    63  62  97 SE3       30.03R FOG
GLASGOW        PTCLDY    62  62 100 CALM      30.04R FOG
$$

KYZ024-025-028>034-038-045-046-053-271200-
NORTH CENTRAL KENTUCKY

CITY           SKY/WX    TMP DP  RH WIND       PRES   REMARKS
LOUISVILLE/SDF CLOUDY    65  62  90 SE5       30.02R
LOUISVILLE/LOU CLEAR     65  62  90 CALM      30.03S
FORT KNOX      PTCLDY    63  63 100 E5        30.00F
$$

KYZ035>037-039>044-047>052-055>060-089>105-271200-
NORTHEAST KENTUCKY

CITY           SKY/WX    TMP DP  RH WIND       PRES   REMARKS
LEXINGTON      CLOUDY    64  61  90 S3        30.06R
COVINGTON      MOCLDY    61  61 100 S6        30.04R
FRANKFORT      CLOUDY    63  60  90 SE3       30.04R
$$

KYZ054-064>069-076>088-106>120-271200-
SOUTHEAST KENTUCKY

CITY           SKY/WX    TMP DP  RH WIND       PRES   REMARKS
JACKSON        MOCLDY    66  61  84 CALM      30.10R
LONDON         CLEAR     61  59  93 CALM      30.10R
SOMERSET       CLOUDY    59  59 100 CALM      30.10R
MIDDLESBORO    CLEAR     58  58 100 CALM      30.14R
MONTICELLO     SUNNY     63  61  93 W10       30.10R
$$







000
ASUS43 KLMK 271010
RWRKY
KENTUCKY REGIONAL WEATHER ROUNDUP
NATIONAL WEATHER SERVICE LOUISVILLE KY
600 AM EDT FRI MAY 27 2016

NOTE "FAIR" INDICATES FEW OR NO CLOUDS BELOW 12,000 FEET
WITH NO SIGNIFICANT WEATHER AND/OR OBSTRUCTIONS TO VISIBILITY.

KYZ001>023-026-027-061>063-070>075-271100-
WESTERN AND SOUTH CENTRAL KENTUCKY

CITY           SKY/WX    TMP DP  RH WIND       PRES   REMARKS
PADUCAH        CLOUDY    67  63  87 SE5       29.92S
HENDERSON      CLOUDY    66  61  82 E9        29.93F
OWENSBORO      CLOUDY    67  67 100 CALM      29.99R
HOPKINSVILLE   CLOUDY    66  66  98 SE8       29.97S
BOWLING GREEN  FOG       62  61  96 CALM      30.02S VSB 1/2
GLASGOW        MOCLDY    63  63 100 CALM      30.03R
$$

KYZ024-025-028>034-038-045-046-053-271100-
NORTH CENTRAL KENTUCKY

CITY           SKY/WX    TMP DP  RH WIND       PRES   REMARKS
LOUISVILLE/SDF CLOUDY    65  62  90 SE6       30.01S
LOUISVILLE/LOU CLOUDY    64  62  93 CALM      30.03R
FORT KNOX      PTCLDY    62  62 100 E3        30.01R
$$

KYZ035>037-039>044-047>052-055>060-089>105-271100-
NORTHEAST KENTUCKY

CITY           SKY/WX    TMP DP  RH WIND       PRES   REMARKS
LEXINGTON      PTCLDY    63  60  90 CALM      30.05R
COVINGTON      CLOUDY    61  61 100 CALM      30.03S
FRANKFORT      CLOUDY    64  61  90 E3        30.03S
$$

KYZ054-064>069-076>088-106>120-271100-
SOUTHEAST KENTUCKY

CITY           SKY/WX    TMP DP  RH WIND       PRES   REMARKS
JACKSON        MOCLDY    67  61  81 S3        30.09R
LONDON         CLEAR     61  59  93 CALM      30.08R
SOMERSET       FOG       59  59 100 CALM      30.09R VSB 3/4
MIDDLESBORO    CLEAR     59  59 100 CALM      30.12R
MONTICELLO     SUNNY     63  61  93 W12       30.09R
$$







000
ASUS43 KLMK 271002
RWRKY
KENTUCKY REGIONAL WEATHER ROUNDUP
NATIONAL WEATHER SERVICE LOUISVILLE KY
600 AM EDT FRI MAY 27 2016

NOTE "FAIR" INDICATES FEW OR NO CLOUDS BELOW 12,000 FEET
WITH NO SIGNIFICANT WEATHER AND/OR OBSTRUCTIONS TO VISIBILITY.

KYZ001>023-026-027-061>063-070>075-271100-
WESTERN AND SOUTH CENTRAL KENTUCKY

CITY           SKY/WX    TMP DP  RH WIND       PRES   REMARKS
PADUCAH        CLOUDY    67  63  87 SE5       29.92S
HENDERSON      CLOUDY    66  61  82 E9        29.93F
OWENSBORO      CLOUDY    67  67 100 CALM      29.99R
HOPKINSVILLE   NOT AVBL
BOWLING GREEN  FOG       62  61  96 CALM      30.02S VSB 1/2
GLASGOW        NOT AVBL
$$

KYZ024-025-028>034-038-045-046-053-271100-
NORTH CENTRAL KENTUCKY

CITY           SKY/WX    TMP DP  RH WIND       PRES   REMARKS
LOUISVILLE/SDF CLOUDY    65  62  90 SE6       30.01S
LOUISVILLE/LOU CLOUDY    64  62  93 CALM      30.03R
FORT KNOX      NOT AVBL
$$

KYZ035>037-039>044-047>052-055>060-089>105-271100-
NORTHEAST KENTUCKY

CITY           SKY/WX    TMP DP  RH WIND       PRES   REMARKS
LEXINGTON      PTCLDY    63  60  90 CALM      30.05R
COVINGTON      CLOUDY    61  61 100 CALM      30.03S
FRANKFORT      CLOUDY    64  61  90 E3        30.03S
$$

KYZ054-064>069-076>088-106>120-271100-
SOUTHEAST KENTUCKY

CITY           SKY/WX    TMP DP  RH WIND       PRES   REMARKS
JACKSON        MOCLDY    67  61  81 S3        30.09R
LONDON         CLEAR     61  59  93 CALM      30.08R
SOMERSET       NOT AVBL
MIDDLESBORO    NOT AVBL
MONTICELLO     SUNNY     63  61  93 W12       30.09R
$$







000
ASUS43 KLMK 270810
RWRKY
KENTUCKY REGIONAL WEATHER ROUNDUP
NATIONAL WEATHER SERVICE LOUISVILLE KY
400 AM EDT FRI MAY 27 2016

NOTE "FAIR" INDICATES FEW OR NO CLOUDS BELOW 12,000 FEET
WITH NO SIGNIFICANT WEATHER AND/OR OBSTRUCTIONS TO VISIBILITY.

KYZ001>023-026-027-061>063-070>075-270900-
WESTERN AND SOUTH CENTRAL KENTUCKY

CITY           SKY/WX    TMP DP  RH WIND       PRES   REMARKS
PADUCAH        LGT RAIN  66  63  90 NE5       29.91F
HENDERSON      MOCLDY    66  61  82 SE5       29.96F
OWENSBORO      CLOUDY    67  66  96 SE6       30.00R
HOPKINSVILLE   CLOUDY    66  65  98 E6        29.98F
BOWLING GREEN  PTCLDY    62  61  96 SE3       30.02R FOG
GLASGOW        PTCLDY    64  64 100 CALM      30.01F
$$

KYZ024-025-028>034-038-045-046-053-270900-
NORTH CENTRAL KENTUCKY

CITY           SKY/WX    TMP DP  RH WIND       PRES   REMARKS
LOUISVILLE/SDF MOCLDY    66  62  87 SE6       30.01S
LOUISVILLE/LOU PTCLDY    65  62  90 CALM      30.03R
FORT KNOX      MOCLDY    62  62 100 E2        30.01S
$$

KYZ035>037-039>044-047>052-055>060-089>105-270900-
NORTHEAST KENTUCKY

CITY           SKY/WX    TMP DP  RH WIND       PRES   REMARKS
LEXINGTON      CLOUDY    62  60  93 SE5       30.04S
COVINGTON      MOCLDY    62  61  96 S6        30.03S
FRANKFORT      CLOUDY    64  61  90 CALM      30.02S
$$

KYZ054-064>069-076>088-106>120-270900-
SOUTHEAST KENTUCKY

CITY           SKY/WX    TMP DP  RH WIND       PRES   REMARKS
JACKSON        CLOUDY    68  61  78 CALM      30.07S
LONDON         MOCLDY    65  60  84 CALM      30.06S
SOMERSET       CLOUDY    61  61 100 CALM      30.07R
MIDDLESBORO    CLEAR     60  60 100 CALM      30.10S
MONTICELLO     SUNNY     63  61  93 VRB7      30.07R
$$







000
ASUS43 KLMK 270602
RWRKY
KENTUCKY REGIONAL WEATHER ROUNDUP
NATIONAL WEATHER SERVICE LOUISVILLE KY
200 AM EDT FRI MAY 27 2016

NOTE "FAIR" INDICATES FEW OR NO CLOUDS BELOW 12,000 FEET
WITH NO SIGNIFICANT WEATHER AND/OR OBSTRUCTIONS TO VISIBILITY.

KYZ001>023-026-027-061>063-070>075-270700-
WESTERN AND SOUTH CENTRAL KENTUCKY

CITY           SKY/WX    TMP DP  RH WIND       PRES   REMARKS
PADUCAH        CLOUDY    67  64  90 S6        29.97R
HENDERSON      CLOUDY    66  61  82 SE5       29.97R
OWENSBORO      CLOUDY    66  65  97 E3        30.00R
HOPKINSVILLE   NOT AVBL
BOWLING GREEN  CLOUDY    65  64  97 CALM      30.00R
GLASGOW        NOT AVBL
$$

KYZ024-025-028>034-038-045-046-053-270700-
NORTH CENTRAL KENTUCKY

CITY           SKY/WX    TMP DP  RH WIND       PRES   REMARKS
LOUISVILLE/SDF MOCLDY    67  63  87 S5        30.00F
LOUISVILLE/LOU CLOUDY    66  63  90 CALM      30.02S
FORT KNOX      MOCLDY    63  63  99 E5        30.00F
$$

KYZ035>037-039>044-047>052-055>060-089>105-270700-
NORTHEAST KENTUCKY

CITY           SKY/WX    TMP DP  RH WIND       PRES   REMARKS
LEXINGTON      CLOUDY    63  61  93 SE5       30.04S
COVINGTON      CLOUDY    64  62  93 S5        30.03S
FRANKFORT      PTCLDY    63  60  90 CALM      30.03S
$$

KYZ054-064>069-076>088-106>120-270700-
SOUTHEAST KENTUCKY

CITY           SKY/WX    TMP DP  RH WIND       PRES   REMARKS
JACKSON        CLOUDY    68  61  78 SE3       30.09S
LONDON         CLOUDY    65  61  87 CALM      30.07F
SOMERSET       NOT AVBL
MIDDLESBORO    NOT AVBL
MONTICELLO     CLOUDY    66  62  87 E8        30.06S
$$







000
ASUS43 KLMK 270510
RWRKY
KENTUCKY REGIONAL WEATHER ROUNDUP
NATIONAL WEATHER SERVICE LOUISVILLE KY
100 AM EDT FRI MAY 27 2016

NOTE "FAIR" INDICATES FEW OR NO CLOUDS BELOW 12,000 FEET
WITH NO SIGNIFICANT WEATHER AND/OR OBSTRUCTIONS TO VISIBILITY.

KYZ001>023-026-027-061>063-070>075-270600-
WESTERN AND SOUTH CENTRAL KENTUCKY

CITY           SKY/WX    TMP DP  RH WIND       PRES   REMARKS
PADUCAH        LGT RAIN  70  63  78 SW7       29.95F
HENDERSON      MOCLDY    64  61  88 CALM      29.96S
OWENSBORO      CLOUDY    67  65  93 E3        29.99R
HOPKINSVILLE   MOCLDY    67  66  97 S2        29.99R
BOWLING GREEN  CLOUDY    65  64  97 E5        29.99F
GLASGOW        CLOUDY    66  66 100 CALM      30.01R
$$

KYZ024-025-028>034-038-045-046-053-270600-
NORTH CENTRAL KENTUCKY

CITY           SKY/WX    TMP DP  RH WIND       PRES   REMARKS
LOUISVILLE/SDF CLOUDY    68  63  84 S8        30.01S
LOUISVILLE/LOU CLOUDY    66  63  90 S3        30.02S
FORT KNOX      CLOUDY    64  63  99 E5        30.01S
$$

KYZ035>037-039>044-047>052-055>060-089>105-270600-
NORTHEAST KENTUCKY

CITY           SKY/WX    TMP DP  RH WIND       PRES   REMARKS
LEXINGTON      CLOUDY    64  62  93 S6        30.04F
COVINGTON      CLOUDY    64  63  96 S5        30.03R
FRANKFORT      CLOUDY    63  61  93 E3        30.03R
$$

KYZ054-064>069-076>088-106>120-270600-
SOUTHEAST KENTUCKY

CITY           SKY/WX    TMP DP  RH WIND       PRES   REMARKS
JACKSON        MOCLDY    68  61  78 S3        30.09S
LONDON         CLOUDY    64  61  90 CALM      30.08S
SOMERSET       CLOUDY    63  63 100 CALM      30.07F
MIDDLESBORO    CLOUDY    62  61  94 CALM      30.11S
MONTICELLO     PTCLDY    64  62  93 E8        30.06F
$$







000
ASUS43 KLMK 270410
RWRKY
KENTUCKY REGIONAL WEATHER ROUNDUP
NATIONAL WEATHER SERVICE LOUISVILLE KY
1200 AM EDT FRI MAY 27 2016

NOTE "FAIR" INDICATES FEW OR NO CLOUDS BELOW 12,000 FEET
WITH NO SIGNIFICANT WEATHER AND/OR OBSTRUCTIONS TO VISIBILITY.

KYZ001>023-026-027-061>063-070>075-270500-
WESTERN AND SOUTH CENTRAL KENTUCKY

CITY           SKY/WX    TMP DP  RH WIND       PRES   REMARKS
PADUCAH        CLOUDY    69  63  81 VRB3      29.97F
HENDERSON      CLOUDY    64  61  88 CALM      29.96F
OWENSBORO      CLOUDY    67  65  93 E5        29.98S
HOPKINSVILLE   CLOUDY    68  66  94 S3        29.98F
BOWLING GREEN  CLOUDY    68  64  87 W3        30.00R
GLASGOW        CLOUDY    66  66 100 S3        30.00F
$$

KYZ024-025-028>034-038-045-046-053-270500-
NORTH CENTRAL KENTUCKY

CITY           SKY/WX    TMP DP  RH WIND       PRES   REMARKS
LOUISVILLE/SDF CLOUDY    68  63  84 S5        30.01S
LOUISVILLE/LOU PTCLDY    67  63  87 CALM      30.02S
FORT KNOX      CLOUDY    64  63  96 W2        30.01S
$$

KYZ035>037-039>044-047>052-055>060-089>105-270500-
NORTHEAST KENTUCKY

CITY           SKY/WX    TMP DP  RH WIND       PRES   REMARKS
LEXINGTON      PTCLDY    64  62  93 SE7       30.05S
COVINGTON      CLOUDY    66  63  90 SW7       30.02S
FRANKFORT      MOCLDY    65  62  90 SE6       30.02F
$$

KYZ054-064>069-076>088-106>120-270500-
SOUTHEAST KENTUCKY

CITY           SKY/WX    TMP DP  RH WIND       PRES   REMARKS
JACKSON        PTCLDY    67  61  81 CALM      30.09S
LONDON         CLOUDY    65  60  84 CALM      30.08R
SOMERSET       PTCLDY    61  61 100 CALM      30.07S
MIDDLESBORO    CLEAR     63  61  93 CALM      30.11R
MONTICELLO     CLOUDY    65  62  90 E7        30.07S
$$







000
ASUS43 KLMK 270210
RWRKY
KENTUCKY REGIONAL WEATHER ROUNDUP
NATIONAL WEATHER SERVICE LOUISVILLE KY
1000 PM EDT THU MAY 26 2016

NOTE "FAIR" INDICATES FEW OR NO CLOUDS BELOW 12,000 FEET
WITH NO SIGNIFICANT WEATHER AND/OR OBSTRUCTIONS TO VISIBILITY.

KYZ001>023-026-027-061>063-070>075-270300-
WESTERN AND SOUTH CENTRAL KENTUCKY

CITY           SKY/WX    TMP DP  RH WIND       PRES   REMARKS
PADUCAH        CLOUDY    69  63  81 S9        29.97R
HENDERSON      MOCLDY    70  63  78 S6        29.97R
OWENSBORO      CLOUDY    69  65  87 NW3       29.98R
HOPKINSVILLE   PTCLDY    69  66  91 S10       29.98F
BOWLING GREEN  CLOUDY    68  66  93 S10       30.03R
GLASGOW        CLOUDY    65  65 100 SW6       30.04R
$$

KYZ024-025-028>034-038-045-046-053-270300-
NORTH CENTRAL KENTUCKY

CITY           SKY/WX    TMP DP  RH WIND       PRES   REMARKS
LOUISVILLE/SDF CLOUDY    68  64  87 SE7       29.99S
LOUISVILLE/LOU CLOUDY    68  64  87 SE3       30.00S
FORT KNOX      CLOUDY    66  64  92 SE6       29.99R
$$

KYZ035>037-039>044-047>052-055>060-089>105-270300-
NORTHEAST KENTUCKY

CITY           SKY/WX    TMP DP  RH WIND       PRES   REMARKS
LEXINGTON      PTCLDY    64  62  93 SE7       30.02S
COVINGTON      CLOUDY    67  65  93 SW7       30.01R
FRANKFORT      CLOUDY    66  62  87 CALM      30.01R
$$

KYZ054-064>069-076>088-106>120-270300-
SOUTHEAST KENTUCKY

CITY           SKY/WX    TMP DP  RH WIND       PRES   REMARKS
JACKSON        CLEAR     67  62  84 CALM      30.05S
LONDON         PTCLDY    66  60  81 SE8       30.04F
SOMERSET       PTCLDY    63  63 100 CALM      30.06R
MIDDLESBORO    CLEAR     65  62  89 CALM      30.09F
MONTICELLO     NOT AVBL
$$







    US Dept of Commerce
    National Oceanic and Atmospheric Administration
    National Weather Service
    1325 East West Highway
    Silver Spring, MD 20910
    Page Author: NWS Internet Services Team
Disclaimer
Information Quality
Credits
Glossary
Privacy Policy
Freedom of Information Act (FOIA)
About Us
Career Opportunities